{"data":{"norad_id":82189,"epoch":"2026-05-22T05:41:56.835168Z","epoch_age_seconds":309789,"freshness":"STALE","line1":"1 82189U          26142.23746337  .00000191  00000+0  75789-4 0  9998","line2":"2 82189  74.0331 114.0032 0017730 266.1750  93.7376 14.35323131655449","mean_motion":14.35323131,"eccentricity":0.001773,"inclination_deg":74.0331,"raan_deg":114.0032,"arg_perigee_deg":266.175,"mean_anomaly_deg":93.7376,"bstar":7.5789e-5,"rev_number":65544,"period_min":100.32584084371,"perigee_km":761.31203822077,"apogee_km":786.67349036496,"semimajor_km":7152.1297642929,"source":"CELESTRAK","updated_at":"2026-05-25T13:38:11.184152Z"}}